Year,Month,Day,Hour,Minute,Value (Times are PST for temperature in C)
2006,09,14,00,00,11.80
2006,09,14,00,01,11.80
2006,09,14,00,02,11.80
2006,09,14,00,03,11.80
2006,09,14,00,04,11.80
2006,09,14,00,05,11.80
2006,09,14,00,06,11.80
2006,09,14,00,07,11.80
2006,09,14,00,08,11.70
2006,09,14,00,09,11.70
2006,09,14,00,10,11.70
2006,09,14,00,11,11.70
2006,09,14,00,12,11.70
2006,09,14,00,13,11.70
2006,09,14,00,14,11.70
2006,09,14,00,15,11.70
2006,09,14,00,16,11.70
2006,09,14,00,17,11.70
2006,09,14,00,18,11.70
2006,09,14,00,19,11.70
2006,09,14,00,20,11.70
2006,09,14,00,21,11.70
2006,09,14,00,22,11.70
2006,09,14,00,23,11.70
2006,09,14,00,24,11.70
2006,09,14,00,25,11.70
2006,09,14,00,26,11.70
2006,09,14,00,27,11.70
2006,09,14,00,28,11.60
2006,09,14,00,29,11.60
2006,09,14,00,30,11.60
2006,09,14,00,31,11.60
2006,09,14,00,32,11.60
2006,09,14,00,33,11.60
2006,09,14,00,34,11.60
2006,09,14,00,35,11.60
2006,09,14,00,36,11.60
2006,09,14,00,37,11.60
2006,09,14,00,38,11.60
2006,09,14,00,39,11.60
2006,09,14,00,40,11.60
2006,09,14,00,41,11.60
2006,09,14,00,42,11.60
2006,09,14,00,43,11.60
2006,09,14,00,44,11.60
2006,09,14,00,45,11.60
2006,09,14,00,46,11.60
2006,09,14,00,47,11.60
2006,09,14,00,48,11.60
2006,09,14,00,49,11.60
2006,09,14,00,50,11.60
2006,09,14,00,51,11.60
2006,09,14,00,52,11.60
2006,09,14,00,53,11.60
2006,09,14,00,54,11.60
2006,09,14,00,55,11.60
2006,09,14,00,56,11.60
2006,09,14,00,57,11.50
2006,09,14,00,58,11.40
2006,09,14,00,59,11.40
2006,09,14,01,00,11.40
2006,09,14,01,01,11.40
2006,09,14,01,02,11.40
2006,09,14,01,03,11.40
2006,09,14,01,04,11.40
2006,09,14,01,05,11.40
2006,09,14,01,06,11.40
2006,09,14,01,07,11.40
2006,09,14,01,08,11.40
2006,09,14,01,09,11.40
2006,09,14,01,10,11.40
2006,09,14,01,11,11.40
2006,09,14,01,12,11.40
2006,09,14,01,13,11.40
2006,09,14,01,14,11.40
2006,09,14,01,15,11.40
2006,09,14,01,16,11.40
2006,09,14,01,17,11.40
2006,09,14,01,18,11.40
2006,09,14,01,19,11.40
2006,09,14,01,20,11.40
2006,09,14,01,21,11.30
2006,09,14,01,22,11.30
2006,09,14,01,23,11.30
2006,09,14,01,24,11.30
2006,09,14,01,25,11.30
2006,09,14,01,26,11.30
2006,09,14,01,27,11.30
2006,09,14,01,28,11.20
2006,09,14,01,29,11.20
2006,09,14,01,30,11.20
2006,09,14,01,31,11.20
2006,09,14,01,32,11.20
2006,09,14,01,33,11.20
2006,09,14,01,34,11.10
2006,09,14,01,35,11.10
2006,09,14,01,36,11.10
2006,09,14,01,37,11.10
2006,09,14,01,38,11.10
2006,09,14,01,39,11.10
2006,09,14,01,40,11.10
2006,09,14,01,41,11.10
2006,09,14,01,42,11.10
2006,09,14,01,43,11.10
2006,09,14,01,44,11.00
2006,09,14,01,45,10.90
2006,09,14,01,46,10.90
2006,09,14,01,47,10.90
2006,09,14,01,48,10.90
2006,09,14,01,49,10.90
2006,09,14,01,50,10.90
2006,09,14,01,51,10.90
2006,09,14,01,52,10.90
2006,09,14,01,53,10.90
2006,09,14,01,54,10.90
2006,09,14,01,55,10.90
2006,09,14,01,56,10.90
2006,09,14,01,57,10.80
2006,09,14,01,58,10.80
2006,09,14,01,59,10.80
2006,09,14,02,00,10.80
2006,09,14,02,01,10.80
2006,09,14,02,02,10.80
2006,09,14,02,03,10.80
2006,09,14,02,04,10.70
2006,09,14,02,05,10.70
2006,09,14,02,06,10.70
2006,09,14,02,07,10.70
2006,09,14,02,08,10.70
2006,09,14,02,09,10.70
2006,09,14,02,10,10.70
2006,09,14,02,11,10.70
2006,09,14,02,12,10.60
2006,09,14,02,13,10.60
2006,09,14,02,14,10.60
2006,09,14,02,15,10.60
2006,09,14,02,16,10.60
2006,09,14,02,17,10.60
2006,09,14,02,18,10.60
2006,09,14,02,19,10.60
2006,09,14,02,20,10.60
2006,09,14,02,21,10.60
2006,09,14,02,22,10.60
2006,09,14,02,23,10.60
2006,09,14,02,24,10.60
2006,09,14,02,25,10.60
2006,09,14,02,26,10.60
2006,09,14,02,27,10.60
2006,09,14,02,28,10.60
2006,09,14,02,29,10.50
2006,09,14,02,30,10.40
2006,09,14,02,31,10.40
2006,09,14,02,32,10.40
2006,09,14,02,33,10.40
2006,09,14,02,34,10.40
2006,09,14,02,35,10.40
2006,09,14,02,36,10.40
2006,09,14,02,37,10.40
2006,09,14,02,38,10.40
2006,09,14,02,39,10.40
2006,09,14,02,40,10.40
2006,09,14,02,41,10.40
2006,09,14,02,42,10.40
2006,09,14,02,43,10.40
2006,09,14,02,44,10.40
2006,09,14,02,45,10.40
2006,09,14,02,46,10.40
2006,09,14,02,47,10.40
2006,09,14,02,48,10.30
2006,09,14,02,49,10.30
2006,09,14,02,50,10.30
2006,09,14,02,51,10.30
2006,09,14,02,52,10.30
2006,09,14,02,53,10.30
2006,09,14,02,54,10.30
2006,09,14,02,55,10.30
2006,09,14,02,56,10.20
2006,09,14,02,57,10.20
2006,09,14,02,58,10.20
2006,09,14,02,59,10.20
2006,09,14,03,00,10.20
2006,09,14,03,01,10.10
2006,09,14,03,02,10.10
2006,09,14,03,03,10.10
2006,09,14,03,04,10.10
2006,09,14,03,05,10.10
2006,09,14,03,06,10.10
2006,09,14,03,07,10.10
2006,09,14,03,08,10.10
2006,09,14,03,09,10.10
2006,09,14,03,10,10.00
2006,09,14,03,11,9.90
2006,09,14,03,12,9.90
2006,09,14,03,13,9.90
2006,09,14,03,14,9.90
2006,09,14,03,15,9.90
2006,09,14,03,16,9.90
2006,09,14,03,17,9.90
2006,09,14,03,18,9.90
2006,09,14,03,19,9.80
2006,09,14,03,20,9.80
2006,09,14,03,21,9.80
2006,09,14,03,22,9.80
2006,09,14,03,23,9.70
2006,09,14,03,24,9.70
2006,09,14,03,25,9.70
2006,09,14,03,26,9.70
2006,09,14,03,27,9.70
2006,09,14,03,28,9.70
2006,09,14,03,29,9.70
2006,09,14,03,30,9.70
2006,09,14,03,31,9.70
2006,09,14,03,32,9.70
2006,09,14,03,33,9.70
2006,09,14,03,34,9.70
2006,09,14,03,35,9.70
2006,09,14,03,36,9.60
2006,09,14,03,37,9.60
2006,09,14,03,38,9.60
2006,09,14,03,39,9.60
2006,09,14,03,40,9.60
2006,09,14,03,41,9.60
2006,09,14,03,42,9.60
2006,09,14,03,43,9.60
2006,09,14,03,44,9.60
2006,09,14,03,45,9.60
2006,09,14,03,46,9.60
2006,09,14,03,47,9.60
2006,09,14,03,48,9.60
2006,09,14,03,49,9.50
2006,09,14,03,50,9.50
2006,09,14,03,51,9.50
2006,09,14,03,52,9.50
2006,09,14,03,53,9.50
2006,09,14,03,54,9.50
2006,09,14,03,55,9.50
2006,09,14,03,56,9.50
2006,09,14,03,57,9.50
2006,09,14,03,58,9.40
2006,09,14,03,59,9.40
2006,09,14,04,00,9.40
2006,09,14,04,01,9.40
2006,09,14,04,02,9.40
2006,09,14,04,03,9.40
2006,09,14,04,04,9.40
2006,09,14,04,05,9.40
2006,09,14,04,06,9.40
2006,09,14,04,07,9.40
2006,09,14,04,08,9.30
2006,09,14,04,09,9.30
2006,09,14,04,10,9.30
2006,09,14,04,11,9.30
2006,09,14,04,12,9.30
2006,09,14,04,13,9.30
2006,09,14,04,14,9.30
2006,09,14,04,15,9.20
2006,09,14,04,16,9.20
2006,09,14,04,17,9.20
2006,09,14,04,18,9.20
2006,09,14,04,19,9.20
2006,09,14,04,20,9.20
2006,09,14,04,21,9.20
2006,09,14,04,22,9.10
2006,09,14,04,23,9.10
2006,09,14,04,24,9.10
2006,09,14,04,25,9.10
2006,09,14,04,26,9.10
2006,09,14,04,27,9.00
2006,09,14,04,28,9.00
2006,09,14,04,29,9.00
2006,09,14,04,30,9.00
2006,09,14,04,31,8.90
2006,09,14,04,32,8.90
2006,09,14,04,33,8.90
2006,09,14,04,34,8.90
2006,09,14,04,35,8.80
2006,09,14,04,36,8.80
2006,09,14,04,37,8.80
2006,09,14,04,38,8.80
2006,09,14,04,39,8.80
2006,09,14,04,40,8.80
2006,09,14,04,41,8.80
2006,09,14,04,42,8.70
2006,09,14,04,43,8.70
2006,09,14,04,44,8.70
2006,09,14,04,45,8.70
2006,09,14,04,46,8.70
2006,09,14,04,47,8.70
2006,09,14,04,48,8.70
2006,09,14,04,49,8.70
2006,09,14,04,50,8.60
2006,09,14,04,51,8.60
2006,09,14,04,52,8.60
2006,09,14,04,53,8.60
2006,09,14,04,54,8.50
2006,09,14,04,55,8.50
2006,09,14,04,56,8.50
2006,09,14,04,57,8.40
2006,09,14,04,58,8.40
2006,09,14,04,59,8.40
2006,09,14,05,00,8.40
2006,09,14,05,01,8.40
2006,09,14,05,02,8.40
2006,09,14,05,03,8.30
2006,09,14,05,04,8.30
2006,09,14,05,05,8.30
2006,09,14,05,06,8.30
2006,09,14,05,07,8.20
2006,09,14,05,08,8.20
2006,09,14,05,09,8.20
2006,09,14,05,10,8.20
2006,09,14,05,11,8.20
2006,09,14,05,12,8.20
2006,09,14,05,13,8.20
2006,09,14,05,14,8.20
2006,09,14,05,15,8.20
2006,09,14,05,16,8.20
2006,09,14,05,17,8.10
2006,09,14,05,18,8.10
2006,09,14,05,19,8.10
2006,09,14,05,20,8.10
2006,09,14,05,21,8.10
2006,09,14,05,22,8.00
2006,09,14,05,23,8.00
2006,09,14,05,24,8.00
2006,09,14,05,25,8.00
2006,09,14,05,26,8.00
2006,09,14,05,27,8.00
2006,09,14,05,28,7.90
2006,09,14,05,29,7.90
2006,09,14,05,30,7.90
2006,09,14,05,31,7.90
2006,09,14,05,32,7.90
2006,09,14,05,33,7.80
2006,09,14,05,34,7.80
2006,09,14,05,35,7.80
2006,09,14,05,36,7.80
2006,09,14,05,37,7.80
2006,09,14,05,38,7.80
2006,09,14,05,39,7.80
2006,09,14,05,40,7.80
2006,09,14,05,41,7.80
2006,09,14,05,42,7.80
2006,09,14,05,43,7.80
2006,09,14,05,44,7.80
2006,09,14,05,45,7.80
2006,09,14,05,46,7.80
2006,09,14,05,47,7.80
2006,09,14,05,48,7.70
2006,09,14,05,49,7.70
2006,09,14,05,50,7.70
2006,09,14,05,51,7.70
2006,09,14,05,52,7.70
2006,09,14,05,53,7.60
2006,09,14,05,54,7.60
2006,09,14,05,55,7.60
2006,09,14,05,56,7.60
2006,09,14,05,57,7.50
2006,09,14,05,58,7.50
2006,09,14,05,59,7.50
2006,09,14,06,00,7.50
2006,09,14,06,01,7.50
2006,09,14,06,02,7.50
2006,09,14,06,03,7.50
2006,09,14,06,04,7.50
2006,09,14,06,05,7.50
2006,09,14,06,06,7.50
2006,09,14,06,07,7.50
2006,09,14,06,08,7.50
2006,09,14,06,09,7.50
2006,09,14,06,10,7.40
2006,09,14,06,11,7.40
2006,09,14,06,12,7.40
2006,09,14,06,13,7.40
2006,09,14,06,14,7.40
2006,09,14,06,15,7.30
2006,09,14,06,16,7.30
2006,09,14,06,17,7.30
2006,09,14,06,18,7.30
2006,09,14,06,19,7.30
2006,09,14,06,20,7.30
2006,09,14,06,21,7.30
2006,09,14,06,22,7.30
2006,09,14,06,23,7.30
2006,09,14,06,24,7.30
2006,09,14,06,25,7.30
2006,09,14,06,26,7.30
2006,09,14,06,27,7.30
2006,09,14,06,28,7.30
2006,09,14,06,29,7.30
2006,09,14,06,30,7.30
2006,09,14,06,31,7.30
2006,09,14,06,32,7.30
2006,09,14,06,33,7.30
2006,09,14,06,34,7.30
2006,09,14,06,35,7.30
2006,09,14,06,36,7.20
2006,09,14,06,37,7.20
2006,09,14,06,38,7.20
2006,09,14,06,39,7.20
2006,09,14,06,40,7.10
2006,09,14,06,41,7.10
2006,09,14,06,42,7.10
2006,09,14,06,43,7.10
2006,09,14,06,44,7.00
2006,09,14,06,45,7.00
2006,09,14,06,46,7.00
2006,09,14,06,47,7.00
2006,09,14,06,48,7.00
2006,09,14,06,49,7.00
2006,09,14,06,50,6.90
2006,09,14,06,51,6.90
2006,09,14,06,52,6.90
2006,09,14,06,53,6.90
2006,09,14,06,54,6.90
2006,09,14,06,55,6.90
2006,09,14,06,56,6.90
2006,09,14,06,57,6.90
2006,09,14,06,58,6.90
2006,09,14,06,59,6.90
2006,09,14,07,00,6.90
2006,09,14,07,01,6.80
2006,09,14,07,02,6.80
2006,09,14,07,03,6.80
2006,09,14,07,04,6.80
2006,09,14,07,05,6.80
2006,09,14,07,06,6.80
2006,09,14,07,07,6.80
2006,09,14,07,08,6.80
2006,09,14,07,09,6.80
2006,09,14,07,10,6.80
2006,09,14,07,11,6.90
2006,09,14,07,12,6.90
2006,09,14,07,13,6.90
2006,09,14,07,14,6.90
2006,09,14,07,15,6.90
2006,09,14,07,16,6.90
2006,09,14,07,17,6.90
2006,09,14,07,18,6.90
2006,09,14,07,19,6.90
2006,09,14,07,20,6.90
2006,09,14,07,21,6.90
2006,09,14,07,22,6.90
2006,09,14,07,23,6.90
2006,09,14,07,24,6.90
2006,09,14,07,25,6.90
2006,09,14,07,26,6.90
2006,09,14,07,27,6.90
2006,09,14,07,28,6.90
2006,09,14,07,29,6.90
2006,09,14,07,30,6.90
2006,09,14,07,31,6.90
2006,09,14,07,32,6.90
2006,09,14,07,33,6.90
2006,09,14,07,34,6.90
2006,09,14,07,35,6.90
2006,09,14,07,36,6.90
2006,09,14,07,37,6.80
2006,09,14,07,38,6.80
2006,09,14,07,39,6.90
2006,09,14,07,40,6.90
2006,09,14,07,41,6.90
2006,09,14,07,42,6.90
2006,09,14,07,43,6.90
2006,09,14,07,44,6.90
2006,09,14,07,45,7.00
2006,09,14,07,46,7.00
2006,09,14,07,47,7.00
2006,09,14,07,48,7.00
2006,09,14,07,49,7.10
2006,09,14,07,50,7.10
2006,09,14,07,51,7.10
2006,09,14,07,52,7.10
2006,09,14,07,53,7.20
2006,09,14,07,54,7.20
2006,09,14,07,55,7.20
2006,09,14,07,56,7.20
2006,09,14,07,57,7.20
2006,09,14,07,58,7.30
2006,09,14,07,59,7.30
2006,09,14,08,00,7.30
2006,09,14,08,01,7.30
2006,09,14,08,02,7.30
2006,09,14,08,03,7.30
2006,09,14,08,04,7.30
2006,09,14,08,05,7.40
2006,09,14,08,06,7.40
2006,09,14,08,07,7.50
2006,09,14,08,08,7.50
2006,09,14,08,09,7.50
2006,09,14,08,10,7.60
2006,09,14,08,11,7.70
2006,09,14,08,12,7.80
2006,09,14,08,13,7.80
2006,09,14,08,14,7.80
2006,09,14,08,15,7.90
2006,09,14,08,16,8.00
2006,09,14,08,17,8.10
2006,09,14,08,18,8.20
2006,09,14,08,19,8.30
2006,09,14,08,20,8.40
2006,09,14,08,21,8.40
2006,09,14,08,22,8.50
2006,09,14,08,23,8.70
2006,09,14,08,24,8.80
2006,09,14,08,25,8.90
2006,09,14,08,26,9.00
2006,09,14,08,27,9.10
2006,09,14,08,28,9.20
2006,09,14,08,29,9.30
2006,09,14,08,30,9.50
2006,09,14,08,31,9.70
2006,09,14,08,32,9.80
2006,09,14,08,33,10.00
2006,09,14,08,34,10.10
2006,09,14,08,35,10.30
2006,09,14,08,36,10.40
2006,09,14,08,37,10.60
2006,09,14,08,38,10.70
2006,09,14,08,39,10.70
2006,09,14,08,40,10.70
2006,09,14,08,41,10.80
2006,09,14,08,42,10.90
2006,09,14,08,43,11.00
2006,09,14,08,44,11.10
2006,09,14,08,45,11.30
2006,09,14,08,46,11.40
2006,09,14,08,47,11.60
2006,09,14,08,48,11.80
2006,09,14,08,49,11.90
2006,09,14,08,50,12.10
2006,09,14,08,51,12.20
2006,09,14,08,52,12.30
2006,09,14,08,53,12.30
2006,09,14,08,54,12.50
2006,09,14,08,55,12.60
2006,09,14,08,56,12.60
2006,09,14,08,57,12.70
2006,09,14,08,58,12.80
2006,09,14,08,59,12.80
2006,09,14,09,00,12.80
2006,09,14,09,01,12.90
2006,09,14,09,02,12.90
2006,09,14,09,03,12.90
2006,09,14,09,04,12.80
2006,09,14,09,05,12.90
2006,09,14,09,06,12.90
2006,09,14,09,07,12.90
2006,09,14,09,08,12.90
2006,09,14,09,09,12.90
2006,09,14,09,10,12.90
2006,09,14,09,11,12.90
2006,09,14,09,12,13.00
2006,09,14,09,13,13.00
2006,09,14,09,14,13.10
2006,09,14,09,15,13.20
2006,09,14,09,16,13.20
2006,09,14,09,17,13.20
2006,09,14,09,18,13.20
2006,09,14,09,19,13.20
2006,09,14,09,20,13.20
2006,09,14,09,21,13.20
2006,09,14,09,22,13.20
2006,09,14,09,23,13.20
2006,09,14,09,24,13.20
2006,09,14,09,25,13.20
2006,09,14,09,26,13.20
2006,09,14,09,27,13.30
2006,09,14,09,28,13.30
2006,09,14,09,29,13.40
2006,09,14,09,30,13.40
2006,09,14,09,31,13.50
2006,09,14,09,32,13.50
2006,09,14,09,33,13.50
2006,09,14,09,34,13.50
2006,09,14,09,35,13.40
2006,09,14,09,36,13.40
2006,09,14,09,37,13.40
2006,09,14,09,38,13.50
2006,09,14,09,39,13.50
2006,09,14,09,40,13.50
2006,09,14,09,41,13.50
2006,09,14,09,42,13.50
2006,09,14,09,43,13.50
2006,09,14,09,44,13.50
2006,09,14,09,45,13.50
2006,09,14,09,46,13.50
2006,09,14,09,47,13.50
2006,09,14,09,48,13.50
2006,09,14,09,49,13.50
2006,09,14,09,50,13.50
2006,09,14,09,51,13.60
2006,09,14,09,52,13.60
2006,09,14,09,53,13.60
2006,09,14,09,54,13.60
2006,09,14,09,55,13.60
2006,09,14,09,56,13.60
2006,09,14,09,57,13.60
2006,09,14,09,58,13.60
2006,09,14,09,59,13.60
2006,09,14,10,00,13.60
2006,09,14,10,01,13.60
2006,09,14,10,02,13.60
2006,09,14,10,03,13.60
2006,09,14,10,04,13.60
2006,09,14,10,05,13.60
2006,09,14,10,06,13.60
2006,09,14,10,07,13.60
2006,09,14,10,08,13.60
2006,09,14,10,09,13.50
2006,09,14,10,10,13.50
2006,09,14,10,11,13.50
2006,09,14,10,12,13.50
2006,09,14,10,13,13.50
2006,09,14,10,14,13.50
2006,09,14,10,15,13.50
2006,09,14,10,16,13.50
2006,09,14,10,17,13.50
2006,09,14,10,18,13.50
2006,09,14,10,19,13.60
2006,09,14,10,20,13.60
2006,09,14,10,21,13.60
2006,09,14,10,22,13.60
2006,09,14,10,23,13.60
2006,09,14,10,24,13.70
2006,09,14,10,25,13.70
2006,09,14,10,26,13.70
2006,09,14,10,27,13.70
2006,09,14,10,28,13.60
2006,09,14,10,29,13.60
2006,09,14,10,30,13.50
2006,09,14,10,31,13.50
2006,09,14,10,32,13.50
2006,09,14,10,33,13.50
2006,09,14,10,34,13.50
2006,09,14,10,35,13.50
2006,09,14,10,36,13.50
2006,09,14,10,37,13.50
2006,09,14,10,38,13.40
2006,09,14,10,39,13.40
2006,09,14,10,40,13.50
2006,09,14,10,41,13.50
2006,09,14,10,42,13.50
2006,09,14,10,43,13.60
2006,09,14,10,44,13.60
2006,09,14,10,45,13.70
2006,09,14,10,46,13.70
2006,09,14,10,47,13.70
2006,09,14,10,48,13.70
2006,09,14,10,49,13.70
2006,09,14,10,50,13.70
2006,09,14,10,51,13.70
2006,09,14,10,52,13.70
2006,09,14,10,53,13.70
2006,09,14,10,54,13.60
2006,09,14,10,55,13.60
2006,09,14,10,56,13.60
2006,09,14,10,57,13.60
2006,09,14,10,58,13.50
2006,09,14,10,59,13.50
2006,09,14,11,00,13.40
2006,09,14,11,01,13.40
2006,09,14,11,02,13.40
2006,09,14,11,03,13.40
2006,09,14,11,04,13.40
2006,09,14,11,05,13.40
2006,09,14,11,06,13.50
2006,09,14,11,07,13.50
2006,09,14,11,08,13.50
2006,09,14,11,09,13.50
2006,09,14,11,10,13.50
2006,09,14,11,11,13.60
2006,09,14,11,12,13.60
2006,09,14,11,13,13.50
2006,09,14,11,14,13.50
2006,09,14,11,15,13.40
2006,09,14,11,16,13.30
2006,09,14,11,17,13.30
2006,09,14,11,18,13.20
2006,09,14,11,19,13.20
2006,09,14,11,20,13.10
2006,09,14,11,21,13.10
2006,09,14,11,22,13.10
2006,09,14,11,23,13.20
2006,09,14,11,24,13.20
2006,09,14,11,25,13.30
2006,09,14,11,26,13.30
2006,09,14,11,27,13.30
2006,09,14,11,28,13.30
2006,09,14,11,29,13.40
2006,09,14,11,30,13.30
2006,09,14,11,31,13.30
2006,09,14,11,32,13.30
2006,09,14,11,33,13.30
2006,09,14,11,34,13.20
2006,09,14,11,35,13.20
2006,09,14,11,36,13.20
2006,09,14,11,37,13.20
2006,09,14,11,38,13.30
2006,09,14,11,39,13.30
2006,09,14,11,40,13.30
2006,09,14,11,41,13.30
2006,09,14,11,42,13.30
2006,09,14,11,43,13.30
2006,09,14,11,44,13.30
2006,09,14,11,45,13.30
2006,09,14,11,46,13.30
2006,09,14,11,47,13.30
2006,09,14,11,48,13.30
2006,09,14,11,49,13.40
2006,09,14,11,50,13.40
2006,09,14,11,51,13.50
2006,09,14,11,52,13.50
2006,09,14,11,53,13.50
2006,09,14,11,54,13.40
2006,09,14,11,55,13.40
2006,09,14,11,56,13.40
2006,09,14,11,57,13.40
2006,09,14,11,58,13.40
2006,09,14,11,59,13.40
2006,09,14,12,00,13.40
2006,09,14,12,01,13.30
2006,09,14,12,02,13.30
2006,09,14,12,03,13.30
2006,09,14,12,04,13.30
2006,09,14,12,05,13.30
2006,09,14,12,06,13.30
2006,09,14,12,07,13.30
2006,09,14,12,08,13.30
2006,09,14,12,09,13.40
2006,09,14,12,10,13.40
2006,09,14,12,11,13.40
2006,09,14,12,12,13.40
2006,09,14,12,13,13.50
2006,09,14,12,14,13.50
2006,09,14,12,15,13.60
2006,09,14,12,16,13.60
2006,09,14,12,17,13.70
2006,09,14,12,18,13.70
2006,09,14,12,19,13.80
2006,09,14,12,20,13.80
2006,09,14,12,21,13.80
2006,09,14,12,22,13.70
2006,09,14,12,23,13.70
2006,09,14,12,24,13.70
2006,09,14,12,25,13.60
2006,09,14,12,26,13.60
2006,09,14,12,27,13.60
2006,09,14,12,28,13.70
2006,09,14,12,29,13.70
2006,09,14,12,30,13.70
2006,09,14,12,31,13.80
2006,09,14,12,32,13.90
2006,09,14,12,33,14.10
2006,09,14,12,34,14.30
2006,09,14,12,35,14.40
2006,09,14,12,36,14.50
2006,09,14,12,37,14.60
2006,09,14,12,38,14.60
2006,09,14,12,39,14.60
2006,09,14,12,40,14.60
2006,09,14,12,41,14.50
2006,09,14,12,42,14.40
2006,09,14,12,43,14.30
2006,09,14,12,44,14.30
2006,09,14,12,45,14.30
2006,09,14,12,46,14.20
2006,09,14,12,47,14.20
2006,09,14,12,48,14.30
2006,09,14,12,49,14.40
2006,09,14,12,50,14.40
2006,09,14,12,51,14.40
2006,09,14,12,52,14.30
2006,09,14,12,53,14.30
2006,09,14,12,54,14.30
2006,09,14,12,55,14.40
2006,09,14,12,56,14.40
2006,09,14,12,57,14.50
2006,09,14,12,58,14.60
2006,09,14,12,59,14.70
2006,09,14,13,00,14.80
2006,09,14,13,01,14.90
2006,09,14,13,02,14.90
2006,09,14,13,03,15.00
2006,09,14,13,04,14.90
2006,09,14,13,05,14.80
2006,09,14,13,06,14.70
2006,09,14,13,07,14.60
2006,09,14,13,08,14.50
2006,09,14,13,09,14.40
2006,09,14,13,10,14.40
2006,09,14,13,11,14.30
2006,09,14,13,12,14.30
2006,09,14,13,13,14.40
2006,09,14,13,14,14.50
2006,09,14,13,15,14.60
2006,09,14,13,16,14.70
2006,09,14,13,17,14.70
2006,09,14,13,18,14.80
2006,09,14,13,19,14.80
2006,09,14,13,20,14.80
2006,09,14,13,21,14.90
2006,09,14,13,22,14.90
2006,09,14,13,23,14.80
2006,09,14,13,24,14.80
2006,09,14,13,25,14.90
2006,09,14,13,26,14.80
2006,09,14,13,27,14.70
2006,09,14,13,28,14.70
2006,09,14,13,29,14.60
2006,09,14,13,30,14.70
2006,09,14,13,31,14.70
2006,09,14,13,32,14.60
2006,09,14,13,33,14.70
2006,09,14,13,34,14.70
2006,09,14,13,35,14.70
2006,09,14,13,36,14.70
2006,09,14,13,37,14.70
2006,09,14,13,38,14.80
2006,09,14,13,39,14.80
2006,09,14,13,40,14.80
2006,09,14,13,41,14.80
2006,09,14,13,42,14.70
2006,09,14,13,43,14.80
2006,09,14,13,44,14.80
2006,09,14,13,45,14.80
2006,09,14,13,46,14.80
2006,09,14,13,47,14.80
2006,09,14,13,48,14.80
2006,09,14,13,49,14.80
2006,09,14,13,50,14.80
2006,09,14,13,51,14.90
2006,09,14,13,52,14.90
2006,09,14,13,53,15.00
2006,09,14,13,54,15.10
2006,09,14,13,55,15.30
2006,09,14,13,56,15.40
2006,09,14,13,57,15.40
2006,09,14,13,58,15.40
2006,09,14,13,59,15.30
2006,09,14,14,00,15.10
2006,09,14,14,01,15.00
2006,09,14,14,02,15.00
2006,09,14,14,03,15.00
2006,09,14,14,04,15.00
2006,09,14,14,05,15.00
2006,09,14,14,06,15.00
2006,09,14,14,07,15.10
2006,09,14,14,08,15.30
2006,09,14,14,09,15.50
2006,09,14,14,10,15.50
2006,09,14,14,11,15.50
2006,09,14,14,12,15.50
2006,09,14,14,13,15.30
2006,09,14,14,14,15.10
2006,09,14,14,15,15.10
2006,09,14,14,16,15.10
2006,09,14,14,17,15.20
2006,09,14,14,18,15.40
2006,09,14,14,19,15.50
2006,09,14,14,20,15.40
2006,09,14,14,21,15.40
2006,09,14,14,22,15.30
2006,09,14,14,23,15.20
2006,09,14,14,24,15.20
2006,09,14,14,25,15.30
2006,09,14,14,26,15.30
2006,09,14,14,27,15.40
2006,09,14,14,28,15.50
2006,09,14,14,29,15.50
2006,09,14,14,30,15.60
2006,09,14,14,31,15.60
2006,09,14,14,32,15.60
2006,09,14,14,33,15.60
2006,09,14,14,34,15.60
2006,09,14,14,35,15.70
2006,09,14,14,36,15.70
2006,09,14,14,37,15.70
2006,09,14,14,38,15.60
2006,09,14,14,39,15.60
2006,09,14,14,40,15.60
2006,09,14,14,41,15.50
2006,09,14,14,42,15.40
2006,09,14,14,43,15.50
2006,09,14,14,44,15.40
2006,09,14,14,45,15.40
2006,09,14,14,46,15.40
2006,09,14,14,47,15.40
2006,09,14,14,48,15.50
2006,09,14,14,49,15.50
2006,09,14,14,50,15.60
2006,09,14,14,51,15.70
2006,09,14,14,52,15.80
2006,09,14,14,53,15.60
2006,09,14,14,54,15.50
2006,09,14,14,55,15.50
2006,09,14,14,56,15.40
2006,09,14,14,57,15.40
2006,09,14,14,58,15.40
2006,09,14,14,59,15.40
2006,09,14,15,00,15.30
2006,09,14,15,01,15.30
2006,09,14,15,02,15.30
2006,09,14,15,03,15.20
2006,09,14,15,04,15.10
2006,09,14,15,05,15.00
2006,09,14,15,06,14.90
2006,09,14,15,07,14.90
2006,09,14,15,08,14.80
2006,09,14,15,09,14.70
2006,09,14,15,10,14.70
2006,09,14,15,11,14.60
2006,09,14,15,12,14.50
2006,09,14,15,13,14.50
2006,09,14,15,14,14.50
2006,09,14,15,15,14.50
2006,09,14,15,16,14.50
2006,09,14,15,17,14.60
2006,09,14,15,18,14.50
2006,09,14,15,19,14.50
2006,09,14,15,20,14.50
2006,09,14,15,21,14.50
2006,09,14,15,22,14.50
2006,09,14,15,23,14.50
2006,09,14,15,24,14.50
2006,09,14,15,25,14.50
2006,09,14,15,26,14.60
2006,09,14,15,27,14.60
2006,09,14,15,28,14.60
2006,09,14,15,29,14.60
2006,09,14,15,30,14.60
2006,09,14,15,31,14.50
2006,09,14,15,32,14.40
2006,09,14,15,33,14.30
2006,09,14,15,34,14.30
2006,09,14,15,35,14.20
2006,09,14,15,36,14.20
2006,09,14,15,37,14.20
2006,09,14,15,38,14.20
2006,09,14,15,39,14.10
2006,09,14,15,40,14.10
2006,09,14,15,41,14.10
2006,09,14,15,42,14.10
2006,09,14,15,43,14.10
2006,09,14,15,44,14.20
2006,09,14,15,45,14.20
2006,09,14,15,46,14.20
2006,09,14,15,47,14.20
2006,09,14,15,48,14.30
2006,09,14,15,49,14.30
2006,09,14,15,50,14.30
2006,09,14,15,51,14.40
2006,09,14,15,52,14.30
2006,09,14,15,53,14.30
2006,09,14,15,54,14.30
2006,09,14,15,55,14.30
2006,09,14,15,56,14.20
2006,09,14,15,57,14.20
2006,09,14,15,58,14.20
2006,09,14,15,59,14.10
2006,09,14,16,00,14.00
2006,09,14,16,01,14.00
2006,09,14,16,02,13.90
2006,09,14,16,03,13.90
2006,09,14,16,04,13.90
2006,09,14,16,05,13.80
2006,09,14,16,06,13.70
2006,09,14,16,07,13.70
2006,09,14,16,08,13.70
2006,09,14,16,09,13.60
2006,09,14,16,10,13.60
2006,09,14,16,11,13.60
2006,09,14,16,12,13.60
2006,09,14,16,13,13.60
2006,09,14,16,14,13.70
2006,09,14,16,15,13.70
2006,09,14,16,16,13.70
2006,09,14,16,17,13.70
2006,09,14,16,18,13.70
2006,09,14,16,19,13.70
2006,09,14,16,20,13.70
2006,09,14,16,21,13.70
2006,09,14,16,22,13.70
2006,09,14,16,23,13.70
2006,09,14,16,24,13.70
2006,09,14,16,25,13.70
2006,09,14,16,26,13.70
2006,09,14,16,27,13.70
2006,09,14,16,28,13.70
2006,09,14,16,29,13.70
2006,09,14,16,30,13.70
2006,09,14,16,31,13.70
2006,09,14,16,32,13.80
2006,09,14,16,33,13.70
2006,09,14,16,34,13.70
2006,09,14,16,35,13.70
2006,09,14,16,36,13.70
2006,09,14,16,37,13.70
2006,09,14,16,38,13.70
2006,09,14,16,39,13.70
2006,09,14,16,40,13.70
2006,09,14,16,41,13.80
2006,09,14,16,42,13.80
2006,09,14,16,43,13.80
2006,09,14,16,44,13.90
2006,09,14,16,45,13.90
2006,09,14,16,46,13.90
2006,09,14,16,47,13.90
2006,09,14,16,48,13.90
2006,09,14,16,49,13.90
2006,09,14,16,50,13.90
2006,09,14,16,51,13.90
2006,09,14,16,52,13.90
2006,09,14,16,53,13.90
2006,09,14,16,54,14.00
2006,09,14,16,55,14.00
2006,09,14,16,56,14.00
2006,09,14,16,57,14.10
2006,09,14,16,58,14.10
2006,09,14,16,59,14.10
2006,09,14,17,00,14.10
2006,09,14,17,01,14.10
2006,09,14,17,02,14.10
2006,09,14,17,03,14.10
2006,09,14,17,04,14.10
2006,09,14,17,05,14.10
2006,09,14,17,06,14.10
2006,09,14,17,07,14.10
2006,09,14,17,08,14.10
2006,09,14,17,09,14.00
2006,09,14,17,10,14.00
2006,09,14,17,11,14.00
2006,09,14,17,12,14.00
2006,09,14,17,13,14.00
2006,09,14,17,14,14.00
2006,09,14,17,15,14.00
2006,09,14,17,16,14.10
2006,09,14,17,17,14.10
2006,09,14,17,18,14.10
2006,09,14,17,19,14.10
2006,09,14,17,20,14.00
2006,09,14,17,21,14.00
2006,09,14,17,22,14.00
2006,09,14,17,23,14.00
2006,09,14,17,24,14.00
2006,09,14,17,25,13.90
2006,09,14,17,26,13.80
2006,09,14,17,27,13.70
2006,09,14,17,28,13.50
2006,09,14,17,29,13.40
2006,09,14,17,30,13.30
2006,09,14,17,31,13.20
2006,09,14,17,32,13.10
2006,09,14,17,33,13.00